Year,Month,Day,Hour,Minute,Value (Times are PST for insolation in W/m^2)
2009,09,02,00,00,0.00
2009,09,02,00,01,0.00
2009,09,02,00,02,0.00
2009,09,02,00,03,0.00
2009,09,02,00,04,0.00
2009,09,02,00,05,0.00
2009,09,02,00,06,0.00
2009,09,02,00,07,0.00
2009,09,02,00,08,0.00
2009,09,02,00,09,0.00
2009,09,02,00,10,0.00
2009,09,02,00,11,0.00
2009,09,02,00,12,0.00
2009,09,02,00,13,0.00
2009,09,02,00,14,0.00
2009,09,02,00,15,0.00
2009,09,02,00,16,0.00
2009,09,02,00,17,0.00
2009,09,02,00,18,0.00
2009,09,02,00,19,0.00
2009,09,02,00,20,0.00
2009,09,02,00,21,0.00
2009,09,02,00,22,0.00
2009,09,02,00,23,0.00
2009,09,02,00,24,0.00
2009,09,02,00,25,0.00
2009,09,02,00,26,0.00
2009,09,02,00,27,0.00
2009,09,02,00,28,0.00
2009,09,02,00,29,0.00
2009,09,02,00,30,0.00
2009,09,02,00,31,0.00
2009,09,02,00,32,0.00
2009,09,02,00,33,0.00
2009,09,02,00,34,0.00
2009,09,02,00,35,0.00
2009,09,02,00,36,0.00
2009,09,02,00,37,0.00
2009,09,02,00,38,0.00
2009,09,02,00,39,0.00
2009,09,02,00,40,0.00
2009,09,02,00,41,0.00
2009,09,02,00,42,0.00
2009,09,02,00,43,0.00
2009,09,02,00,44,0.00
2009,09,02,00,45,0.00
2009,09,02,00,46,0.00
2009,09,02,00,47,0.00
2009,09,02,00,48,0.00
2009,09,02,00,49,0.00
2009,09,02,00,50,0.00
2009,09,02,00,51,0.00
2009,09,02,00,52,0.00
2009,09,02,00,53,0.00
2009,09,02,00,54,0.00
2009,09,02,00,55,0.00
2009,09,02,00,56,0.00
2009,09,02,00,57,0.00
2009,09,02,00,58,0.00
2009,09,02,00,59,0.00
2009,09,02,01,00,0.00
2009,09,02,01,01,0.00
2009,09,02,01,02,0.00
2009,09,02,01,03,0.00
2009,09,02,01,04,0.00
2009,09,02,01,05,0.00
2009,09,02,01,06,0.00
2009,09,02,01,07,0.00
2009,09,02,01,08,0.00
2009,09,02,01,09,0.00
2009,09,02,01,10,0.00
2009,09,02,01,11,0.00
2009,09,02,01,12,0.00
2009,09,02,01,13,0.00
2009,09,02,01,14,0.00
2009,09,02,01,15,0.00
2009,09,02,01,16,0.00
2009,09,02,01,17,0.00
2009,09,02,01,18,0.00
2009,09,02,01,19,0.00
2009,09,02,01,20,0.00
2009,09,02,01,21,0.00
2009,09,02,01,22,0.00
2009,09,02,01,23,0.00
2009,09,02,01,24,0.00
2009,09,02,01,25,0.00
2009,09,02,01,26,0.00
2009,09,02,01,27,0.00
2009,09,02,01,28,0.00
2009,09,02,01,29,0.00
2009,09,02,01,30,0.00
2009,09,02,01,31,0.00
2009,09,02,01,32,0.00
2009,09,02,01,33,0.00
2009,09,02,01,34,0.00
2009,09,02,01,35,0.00
2009,09,02,01,36,0.00
2009,09,02,01,37,0.00
2009,09,02,01,38,0.00
2009,09,02,01,39,0.00
2009,09,02,01,40,0.00
2009,09,02,01,41,0.00
2009,09,02,01,42,0.00
2009,09,02,01,43,0.00
2009,09,02,01,44,0.00
2009,09,02,01,45,0.00
2009,09,02,01,46,0.00
2009,09,02,01,47,0.00
2009,09,02,01,48,0.00
2009,09,02,01,49,0.00
2009,09,02,01,50,0.00
2009,09,02,01,51,0.00
2009,09,02,01,52,0.00
2009,09,02,01,53,0.00
2009,09,02,01,54,0.00
2009,09,02,01,55,0.00
2009,09,02,01,56,0.00
2009,09,02,01,57,0.00
2009,09,02,01,58,0.00
2009,09,02,01,59,0.00
2009,09,02,02,00,0.00
2009,09,02,02,01,0.00
2009,09,02,02,02,0.00
2009,09,02,02,03,0.00
2009,09,02,02,04,0.00
2009,09,02,02,05,0.00
2009,09,02,02,06,0.00
2009,09,02,02,07,0.00
2009,09,02,02,08,0.00
2009,09,02,02,09,0.00
2009,09,02,02,10,0.00
2009,09,02,02,11,0.00
2009,09,02,02,12,0.00
2009,09,02,02,13,0.00
2009,09,02,02,14,0.00
2009,09,02,02,15,0.00
2009,09,02,02,16,0.00
2009,09,02,02,17,0.00
2009,09,02,02,18,0.00
2009,09,02,02,19,0.00
2009,09,02,02,20,0.00
2009,09,02,02,21,0.00
2009,09,02,02,22,0.00
2009,09,02,02,23,0.00
2009,09,02,02,24,0.00
2009,09,02,02,25,0.00
2009,09,02,02,26,0.00
2009,09,02,02,27,0.00
2009,09,02,02,28,0.00
2009,09,02,02,29,0.00
2009,09,02,02,30,0.00
2009,09,02,02,31,0.00
2009,09,02,02,32,0.00
2009,09,02,02,33,0.00
2009,09,02,02,34,0.00
2009,09,02,02,35,0.00
2009,09,02,02,36,0.00
2009,09,02,02,37,0.00
2009,09,02,02,38,0.00
2009,09,02,02,39,0.00
2009,09,02,02,40,0.00
2009,09,02,02,41,0.00
2009,09,02,02,42,0.00
2009,09,02,02,43,0.00
2009,09,02,02,44,0.00
2009,09,02,02,45,0.00
2009,09,02,02,46,0.00
2009,09,02,02,47,0.00
2009,09,02,02,48,0.00
2009,09,02,02,49,0.00
2009,09,02,02,50,0.00
2009,09,02,02,51,0.00
2009,09,02,02,52,0.00
2009,09,02,02,53,0.00
2009,09,02,02,54,0.00
2009,09,02,02,55,0.00
2009,09,02,02,56,0.00
2009,09,02,02,57,0.00
2009,09,02,02,58,0.00
2009,09,02,02,59,0.00
2009,09,02,03,00,0.00
2009,09,02,03,01,0.00
2009,09,02,03,02,0.00
2009,09,02,03,03,0.00
2009,09,02,03,04,0.00
2009,09,02,03,05,0.00
2009,09,02,03,06,0.00
2009,09,02,03,07,0.00
2009,09,02,03,08,0.00
2009,09,02,03,09,0.00
2009,09,02,03,10,0.00
2009,09,02,03,11,0.00
2009,09,02,03,12,0.00
2009,09,02,03,13,0.00
2009,09,02,03,14,0.00
2009,09,02,03,15,0.00
2009,09,02,03,16,0.00
2009,09,02,03,17,0.00
2009,09,02,03,18,0.00
2009,09,02,03,19,0.00
2009,09,02,03,20,0.00
2009,09,02,03,21,0.00
2009,09,02,03,22,0.00
2009,09,02,03,23,0.00
2009,09,02,03,24,0.00
2009,09,02,03,25,0.00
2009,09,02,03,26,0.00
2009,09,02,03,27,0.00
2009,09,02,03,28,0.00
2009,09,02,03,29,0.00
2009,09,02,03,30,0.00
2009,09,02,03,31,0.00
2009,09,02,03,32,0.00
2009,09,02,03,33,0.00
2009,09,02,03,34,0.00
2009,09,02,03,35,0.00
2009,09,02,03,36,0.00
2009,09,02,03,37,0.00
2009,09,02,03,38,0.00
2009,09,02,03,39,0.00
2009,09,02,03,40,0.00
2009,09,02,03,41,0.00
2009,09,02,03,42,0.00
2009,09,02,03,43,0.00
2009,09,02,03,44,0.00
2009,09,02,03,45,0.00
2009,09,02,03,46,0.00
2009,09,02,03,47,0.00
2009,09,02,03,48,0.00
2009,09,02,03,49,0.00
2009,09,02,03,50,0.00
2009,09,02,03,51,0.00
2009,09,02,03,52,0.00
2009,09,02,03,53,0.00
2009,09,02,03,54,0.00
2009,09,02,03,55,0.00
2009,09,02,03,56,0.00
2009,09,02,03,57,0.00
2009,09,02,03,58,0.00
2009,09,02,03,59,0.00
2009,09,02,04,00,0.00
2009,09,02,04,01,0.00
2009,09,02,04,02,0.00
2009,09,02,04,03,0.00
2009,09,02,04,04,0.00
2009,09,02,04,05,0.00
2009,09,02,04,06,0.00
2009,09,02,04,07,0.00
2009,09,02,04,08,0.00
2009,09,02,04,09,0.00
2009,09,02,04,10,0.00
2009,09,02,04,11,0.00
2009,09,02,04,12,0.00
2009,09,02,04,13,0.00
2009,09,02,04,14,0.00
2009,09,02,04,15,0.00
2009,09,02,04,16,0.00
2009,09,02,04,17,0.00
2009,09,02,04,18,0.00
2009,09,02,04,19,0.00
2009,09,02,04,20,0.00
2009,09,02,04,21,0.00
2009,09,02,04,22,0.00
2009,09,02,04,23,0.00
2009,09,02,04,24,0.00
2009,09,02,04,25,0.00
2009,09,02,04,26,0.00
2009,09,02,04,27,0.00
2009,09,02,04,28,0.00
2009,09,02,04,29,0.00
2009,09,02,04,30,0.00
2009,09,02,04,31,0.00
2009,09,02,04,32,0.00
2009,09,02,04,33,0.00
2009,09,02,04,34,0.00
2009,09,02,04,35,0.00
2009,09,02,04,36,0.00
2009,09,02,04,37,0.00
2009,09,02,04,38,0.00
2009,09,02,04,39,0.00
2009,09,02,04,40,0.00
2009,09,02,04,41,0.00
2009,09,02,04,42,0.00
2009,09,02,04,43,0.00
2009,09,02,04,44,0.00
2009,09,02,04,45,0.00
2009,09,02,04,46,0.00
2009,09,02,04,47,0.00
2009,09,02,04,48,0.00
2009,09,02,04,49,0.00
2009,09,02,04,50,0.00
2009,09,02,04,51,0.00
2009,09,02,04,52,0.00
2009,09,02,04,53,0.00
2009,09,02,04,54,0.00
2009,09,02,04,55,0.00
2009,09,02,04,56,0.00
2009,09,02,04,57,0.00
2009,09,02,04,58,0.00
2009,09,02,04,59,0.00
2009,09,02,05,00,0.00
2009,09,02,05,01,0.00
2009,09,02,05,02,0.00
2009,09,02,05,03,0.00
2009,09,02,05,04,0.00
2009,09,02,05,05,0.00
2009,09,02,05,06,0.00
2009,09,02,05,07,0.00
2009,09,02,05,08,0.00
2009,09,02,05,09,0.00
2009,09,02,05,10,0.00
2009,09,02,05,11,0.00
2009,09,02,05,12,0.00
2009,09,02,05,13,0.00
2009,09,02,05,14,0.00
2009,09,02,05,15,0.00
2009,09,02,05,16,0.00
2009,09,02,05,17,0.00
2009,09,02,05,18,0.00
2009,09,02,05,19,0.00
2009,09,02,05,20,0.00
2009,09,02,05,21,0.00
2009,09,02,05,22,0.00
2009,09,02,05,23,0.00
2009,09,02,05,24,0.00
2009,09,02,05,25,0.00
2009,09,02,05,26,0.00
2009,09,02,05,27,0.00
2009,09,02,05,28,0.00
2009,09,02,05,29,0.00
2009,09,02,05,30,0.00
2009,09,02,05,31,0.00
2009,09,02,05,32,0.00
2009,09,02,05,33,0.00
2009,09,02,05,34,0.00
2009,09,02,05,35,0.00
2009,09,02,05,36,0.00
2009,09,02,05,37,0.00
2009,09,02,05,38,0.00
2009,09,02,05,39,0.00
2009,09,02,05,40,0.00
2009,09,02,05,41,0.00
2009,09,02,05,42,0.00
2009,09,02,05,43,0.00
2009,09,02,05,44,0.00
2009,09,02,05,45,0.00
2009,09,02,05,46,0.00
2009,09,02,05,47,0.00
2009,09,02,05,48,0.00
2009,09,02,05,49,0.00
2009,09,02,05,50,0.00
2009,09,02,05,51,0.00
2009,09,02,05,52,0.00
2009,09,02,05,53,0.00
2009,09,02,05,54,0.00
2009,09,02,05,55,0.00
2009,09,02,05,56,0.00
2009,09,02,05,57,0.00
2009,09,02,05,58,0.00
2009,09,02,05,59,0.00
2009,09,02,06,00,0.00
2009,09,02,06,01,0.00
2009,09,02,06,02,0.00
2009,09,02,06,03,0.00
2009,09,02,06,04,0.00
2009,09,02,06,05,0.00
2009,09,02,06,06,0.00
2009,09,02,06,07,0.00
2009,09,02,06,08,0.00
2009,09,02,06,09,0.00
2009,09,02,06,10,0.00
2009,09,02,06,11,0.00
2009,09,02,06,12,0.00
2009,09,02,06,13,0.00
2009,09,02,06,14,0.00
2009,09,02,06,15,0.00
2009,09,02,06,16,0.00
2009,09,02,06,17,0.00
2009,09,02,06,18,0.00
2009,09,02,06,19,0.00
2009,09,02,06,20,0.00
2009,09,02,06,21,0.00
2009,09,02,06,22,0.00
2009,09,02,06,23,0.00
2009,09,02,06,24,0.00
2009,09,02,06,25,0.00
2009,09,02,06,26,0.00
2009,09,02,06,27,0.00
2009,09,02,06,28,0.00
2009,09,02,06,29,0.00
2009,09,02,06,30,0.00
2009,09,02,06,31,0.00
2009,09,02,06,32,0.00
2009,09,02,06,33,0.00
2009,09,02,06,34,0.00
2009,09,02,06,35,0.00
2009,09,02,06,36,0.00
2009,09,02,06,37,0.00
2009,09,02,06,38,0.00
2009,09,02,06,39,0.00
2009,09,02,06,40,0.60
2009,09,02,06,41,5.00
2009,09,02,06,42,5.00
2009,09,02,06,43,5.00
2009,09,02,06,44,5.00
2009,09,02,06,45,5.00
2009,09,02,06,46,5.30
2009,09,02,06,47,7.00
2009,09,02,06,48,7.00
2009,09,02,06,49,7.00
2009,09,02,06,50,7.30
2009,09,02,06,51,9.00
2009,09,02,06,52,9.00
2009,09,02,06,53,9.20
2009,09,02,06,54,11.00
2009,09,02,06,55,11.00
2009,09,02,06,56,11.20
2009,09,02,06,57,12.00
2009,09,02,06,58,12.30
2009,09,02,06,59,14.00
2009,09,02,07,00,14.30
2009,09,02,07,01,16.00
2009,09,02,07,02,16.30
2009,09,02,07,03,18.20
2009,09,02,07,04,19.00
2009,09,02,07,05,19.00
2009,09,02,07,06,19.20
2009,09,02,07,07,21.00
2009,09,02,07,08,21.00
2009,09,02,07,09,21.00
2009,09,02,07,10,21.30
2009,09,02,07,11,23.00
2009,09,02,07,12,23.00
2009,09,02,07,13,23.30
2009,09,02,07,14,25.00
2009,09,02,07,15,25.00
2009,09,02,07,16,25.00
2009,09,02,07,17,25.00
2009,09,02,07,18,25.20
2009,09,02,07,19,26.00
2009,09,02,07,20,26.00
2009,09,02,07,21,26.00
2009,09,02,07,22,26.20
2009,09,02,07,23,28.00
2009,09,02,07,24,28.00
2009,09,02,07,25,28.00
2009,09,02,07,26,28.30
2009,09,02,07,27,30.00
2009,09,02,07,28,30.00
2009,09,02,07,29,30.20
2009,09,02,07,30,32.00
2009,09,02,07,31,32.10
2009,09,02,07,32,33.30
2009,09,02,07,33,35.30
2009,09,02,07,34,37.00
2009,09,02,07,35,37.30
2009,09,02,07,36,39.00
2009,09,02,07,37,39.20
2009,09,02,07,38,40.00
2009,09,02,07,39,40.00
2009,09,02,07,40,40.00
2009,09,02,07,41,40.30
2009,09,02,07,42,42.00
2009,09,02,07,43,42.00
2009,09,02,07,44,42.30
2009,09,02,07,45,44.00
2009,09,02,07,46,43.70
2009,09,02,07,47,41.70
2009,09,02,07,48,39.40
2009,09,02,07,49,42.30
2009,09,02,07,50,43.70
2009,09,02,07,51,41.40
2009,09,02,07,52,37.00
2009,09,02,07,53,36.80
2009,09,02,07,54,35.30
2009,09,02,07,55,36.70
2009,09,02,07,56,34.70
2009,09,02,07,57,32.80
2009,09,02,07,58,32.00
2009,09,02,07,59,32.10
2009,09,02,08,00,33.20
2009,09,02,08,01,34.70
2009,09,02,08,02,32.50
2009,09,02,08,03,30.30
2009,09,02,08,04,32.20
2009,09,02,08,05,33.30
2009,09,02,08,06,36.10
2009,09,02,08,07,42.00
2009,09,02,08,08,42.00
2009,09,02,08,09,42.40
2009,09,02,08,10,46.30
2009,09,02,08,11,49.00
2009,09,02,08,12,48.60
2009,09,02,08,13,45.10
2009,09,02,08,14,39.80
2009,09,02,08,15,39.20
2009,09,02,08,16,40.20
2009,09,02,08,17,42.20
2009,09,02,08,18,44.20
2009,09,02,08,19,46.30
2009,09,02,08,20,49.70
2009,09,02,08,21,54.20
2009,09,02,08,22,56.90
2009,09,02,08,23,65.50
2009,09,02,08,24,70.90
2009,09,02,08,25,79.70
2009,09,02,08,26,86.70
2009,09,02,08,27,93.40
2009,09,02,08,28,97.30
2009,09,02,08,29,100.40
2009,09,02,08,30,103.30
2009,09,02,08,31,96.40
2009,09,02,08,32,90.90
2009,09,02,08,33,89.40
2009,09,02,08,34,83.20
2009,09,02,08,35,76.10
2009,09,02,08,36,77.20
2009,09,02,08,37,79.00
2009,09,02,08,38,80.60
2009,09,02,08,39,96.40
2009,09,02,08,40,105.30
2009,09,02,08,41,107.30
2009,09,02,08,42,109.30
2009,09,02,08,43,111.50
2009,09,02,08,44,114.00
2009,09,02,08,45,114.00
2009,09,02,08,46,113.50
2009,09,02,08,47,111.00
2009,09,02,08,48,111.00
2009,09,02,08,49,110.60
2009,09,02,08,50,107.40
2009,09,02,08,51,111.00
2009,09,02,08,52,110.10
2009,09,02,08,53,100.60
2009,09,02,08,54,77.00
2009,09,02,08,55,76.20
2009,09,02,08,56,72.30
2009,09,02,08,57,73.20
2009,09,02,08,58,68.70
2009,09,02,08,59,66.70
2009,09,02,09,00,65.40
2009,09,02,09,01,74.70
2009,09,02,09,02,117.40
2009,09,02,09,03,173.10
2009,09,02,09,04,242.30
2009,09,02,09,05,299.50
2009,09,02,09,06,315.70
2009,09,02,09,07,318.90
2009,09,02,09,08,260.00
2009,09,02,09,09,234.70
2009,09,02,09,10,106.70
2009,09,02,09,11,159.00
2009,09,02,09,12,145.30
2009,09,02,09,13,100.80
2009,09,02,09,14,81.60
2009,09,02,09,15,68.70
2009,09,02,09,16,67.00
2009,09,02,09,17,67.00
2009,09,02,09,18,66.70
2009,09,02,09,19,65.80
2009,09,02,09,20,69.20
2009,09,02,09,21,64.70
2009,09,02,09,22,63.00
2009,09,02,09,23,63.00
2009,09,02,09,24,63.00
2009,09,02,09,25,63.00
2009,09,02,09,26,63.00
2009,09,02,09,27,63.00
2009,09,02,09,28,63.00
2009,09,02,09,29,63.00
2009,09,02,09,30,67.40
2009,09,02,09,31,97.20
2009,09,02,09,32,139.50
2009,09,02,09,33,192.50
2009,09,02,09,34,206.00
2009,09,02,09,35,229.10
2009,09,02,09,36,352.80
2009,09,02,09,37,354.00
2009,09,02,09,38,322.40
2009,09,02,09,39,227.90
2009,09,02,09,40,141.40
2009,09,02,09,41,156.00
2009,09,02,09,42,184.90
2009,09,02,09,43,350.40
2009,09,02,09,44,411.00
2009,09,02,09,45,398.80
2009,09,02,09,46,334.00
2009,09,02,09,47,315.40
2009,09,02,09,48,228.80
2009,09,02,09,49,295.10
2009,09,02,09,50,285.00
2009,09,02,09,51,254.20
2009,09,02,09,52,87.50
2009,09,02,09,53,76.70
2009,09,02,09,54,93.20
2009,09,02,09,55,103.70
2009,09,02,09,56,95.80
2009,09,02,09,57,86.40
2009,09,02,09,58,97.20
2009,09,02,09,59,166.70
2009,09,02,10,00,195.30
2009,09,02,10,01,110.00
2009,09,02,10,02,84.60
2009,09,02,10,03,75.40
2009,09,02,10,04,72.00
2009,09,02,10,05,71.70
2009,09,02,10,06,70.90
2009,09,02,10,07,76.50
2009,09,02,10,08,80.90
2009,09,02,10,09,89.90
2009,09,02,10,10,81.60
2009,09,02,10,11,69.20
2009,09,02,10,12,70.60
2009,09,02,10,13,73.40
2009,09,02,10,14,69.80
2009,09,02,10,15,69.00
2009,09,02,10,16,69.10
2009,09,02,10,17,71.30
2009,09,02,10,18,88.40
2009,09,02,10,19,124.60
2009,09,02,10,20,149.80
2009,09,02,10,21,116.80
2009,09,02,10,22,78.00
2009,09,02,10,23,71.50
2009,09,02,10,24,69.00
2009,09,02,10,25,69.00
2009,09,02,10,26,69.00
2009,09,02,10,27,69.50
2009,09,02,10,28,71.80
2009,09,02,10,29,70.20
2009,09,02,10,30,71.80
2009,09,02,10,31,70.00
2009,09,02,10,32,70.30
2009,09,02,10,33,72.30
2009,09,02,10,34,75.10
2009,09,02,10,35,83.50
2009,09,02,10,36,99.20
2009,09,02,10,37,108.90
2009,09,02,10,38,101.20
2009,09,02,10,39,121.30
2009,09,02,10,40,141.30
2009,09,02,10,41,162.50
2009,09,02,10,42,187.70
2009,09,02,10,43,200.70
2009,09,02,10,44,181.60
2009,09,02,10,45,173.70
2009,09,02,10,46,172.30
2009,09,02,10,47,176.20
2009,09,02,10,48,189.70
2009,09,02,10,49,201.20
2009,09,02,10,50,213.60
2009,09,02,10,51,220.60
2009,09,02,10,52,239.00
2009,09,02,10,53,255.00
2009,09,02,10,54,249.50
2009,09,02,10,55,220.50
2009,09,02,10,56,223.00
2009,09,02,10,57,223.90
2009,09,02,10,58,229.50
2009,09,02,10,59,232.00
2009,09,02,11,00,231.20
2009,09,02,11,01,226.70
2009,09,02,11,02,224.30
2009,09,02,11,03,221.70
2009,09,02,11,04,227.30
2009,09,02,11,05,229.20
2009,09,02,11,06,232.60
2009,09,02,11,07,250.70
2009,09,02,11,08,237.00
2009,09,02,11,09,237.60
2009,09,02,11,10,240.70
2009,09,02,11,11,239.00
2009,09,02,11,12,238.60
2009,09,02,11,13,236.20
2009,09,02,11,14,238.40
2009,09,02,11,15,247.40
2009,09,02,11,16,257.20
2009,09,02,11,17,268.70
2009,09,02,11,18,265.90
2009,09,02,11,19,273.90
2009,09,02,11,20,333.80
2009,09,02,11,21,257.70
2009,09,02,11,22,255.40
2009,09,02,11,23,257.20
2009,09,02,11,24,253.00
2009,09,02,11,25,253.60
2009,09,02,11,26,255.60
2009,09,02,11,27,246.30
2009,09,02,11,28,237.00
2009,09,02,11,29,237.00
2009,09,02,11,30,237.00
2009,09,02,11,31,239.60
2009,09,02,11,32,254.20
2009,09,02,11,33,244.90
2009,09,02,11,34,204.00
2009,09,02,11,35,204.00
2009,09,02,11,36,197.40
2009,09,02,11,37,159.50
2009,09,02,11,38,144.40
2009,09,02,11,39,129.70
2009,09,02,11,40,115.70
2009,09,02,11,41,117.00
2009,09,02,11,42,147.30
2009,09,02,11,43,181.60
2009,09,02,11,44,185.00
2009,09,02,11,45,207.40
2009,09,02,11,46,327.00
2009,09,02,11,47,307.20
2009,09,02,11,48,147.90
2009,09,02,11,49,135.60
2009,09,02,11,50,105.40
2009,09,02,11,51,94.70
2009,09,02,11,52,112.60
2009,09,02,11,53,158.50
2009,09,02,11,54,188.00
2009,09,02,11,55,188.00
2009,09,02,11,56,188.00
2009,09,02,11,57,273.30
2009,09,02,11,58,728.00
2009,09,02,11,59,728.20
2009,09,02,12,00,729.60
2009,09,02,12,01,733.20
2009,09,02,12,02,734.40
2009,09,02,12,03,730.20
2009,09,02,12,04,725.80
2009,09,02,12,05,722.90
2009,09,02,12,06,718.40
2009,09,02,12,07,726.00
2009,09,02,12,08,725.70
2009,09,02,12,09,723.70
2009,09,02,12,10,720.40
2009,09,02,12,11,713.10
2009,09,02,12,12,717.10
2009,09,02,12,13,707.80
2009,09,02,12,14,713.40
2009,09,02,12,15,723.50
2009,09,02,12,16,738.30
2009,09,02,12,17,743.70
2009,09,02,12,18,736.10
2009,09,02,12,19,733.20
2009,09,02,12,20,746.10
2009,09,02,12,21,751.80
2009,09,02,12,22,752.10
2009,09,02,12,23,757.70
2009,09,02,12,24,754.90
2009,09,02,12,25,747.30
2009,09,02,12,26,738.00
2009,09,02,12,27,738.30
2009,09,02,12,28,738.90
2009,09,02,12,29,732.70
2009,09,02,12,30,736.40
2009,09,02,12,31,764.70
2009,09,02,12,32,761.10
2009,09,02,12,33,750.70
2009,09,02,12,34,751.50
2009,09,02,12,35,765.80
2009,09,02,12,36,768.30
2009,09,02,12,37,757.90
2009,09,02,12,38,747.90
2009,09,02,12,39,725.40
2009,09,02,12,40,721.50
2009,09,02,12,41,719.80
2009,09,02,12,42,723.50
2009,09,02,12,43,723.50
2009,09,02,12,44,736.70
2009,09,02,12,45,735.00
2009,09,02,12,46,732.20
2009,09,02,12,47,722.70
2009,09,02,12,48,766.60
2009,09,02,12,49,760.70
2009,09,02,12,50,775.20
2009,09,02,12,51,778.00
2009,09,02,12,52,784.00
2009,09,02,12,53,702.70
2009,09,02,12,54,275.90
2009,09,02,12,55,313.00
2009,09,02,12,56,394.80
2009,09,02,12,57,831.00
2009,09,02,12,58,831.00
2009,09,02,12,59,831.00
2009,09,02,13,00,829.70
2009,09,02,13,01,819.80
2009,09,02,13,02,801.80
2009,09,02,13,03,795.50
2009,09,02,13,04,792.40
2009,09,02,13,05,787.10
2009,09,02,13,06,769.40
2009,09,02,13,07,729.00
2009,09,02,13,08,729.00
2009,09,02,13,09,663.30
2009,09,02,13,10,313.00
2009,09,02,13,11,313.00
2009,09,02,13,12,366.50
2009,09,02,13,13,652.00
2009,09,02,13,14,652.00
2009,09,02,13,15,582.70
2009,09,02,13,16,213.00
2009,09,02,13,17,213.00
2009,09,02,13,18,275.20
2009,09,02,13,19,773.60
2009,09,02,13,20,776.40
2009,09,02,13,21,770.70
2009,09,02,13,22,756.60
2009,09,02,13,23,777.40
2009,09,02,13,24,746.10
2009,09,02,13,25,769.80
2009,09,02,13,26,785.00
2009,09,02,13,27,790.50
2009,09,02,13,28,788.50
2009,09,02,13,29,790.50
2009,09,02,13,30,788.00
2009,09,02,13,31,788.00
2009,09,02,13,32,787.10
2009,09,02,13,33,782.30
2009,09,02,13,34,782.10
2009,09,02,13,35,766.50
2009,09,02,13,36,741.40
2009,09,02,13,37,765.50
2009,09,02,13,38,768.80
2009,09,02,13,39,770.80
2009,09,02,13,40,762.20
2009,09,02,13,41,779.00
2009,09,02,13,42,770.60
2009,09,02,13,43,725.40
2009,09,02,13,44,720.70
2009,09,02,13,45,723.60
2009,09,02,13,46,768.70
2009,09,02,13,47,728.10
2009,09,02,13,48,704.30
2009,09,02,13,49,762.20
2009,09,02,13,50,681.20
2009,09,02,13,51,613.00
2009,09,02,13,52,637.00
2009,09,02,13,53,764.40
2009,09,02,13,54,746.60
2009,09,02,13,55,668.90
2009,09,02,13,56,671.50
2009,09,02,13,57,717.80
2009,09,02,13,58,715.40
2009,09,02,13,59,672.60
2009,09,02,14,00,633.00
2009,09,02,14,01,636.80
2009,09,02,14,02,660.30
2009,09,02,14,03,688.10
2009,09,02,14,04,747.60
2009,09,02,14,05,744.50
2009,09,02,14,06,708.10
2009,09,02,14,07,694.40
2009,09,02,14,08,675.00
2009,09,02,14,09,675.00
2009,09,02,14,10,663.00
2009,09,02,14,11,599.00
2009,09,02,14,12,599.00
2009,09,02,14,13,599.00
2009,09,02,14,14,627.70
2009,09,02,14,15,793.80
2009,09,02,14,16,765.30
2009,09,02,14,17,783.20
2009,09,02,14,18,738.30
2009,09,02,14,19,709.80
2009,09,02,14,20,775.80
2009,09,02,14,21,790.50
2009,09,02,14,22,781.50
2009,09,02,14,23,747.00
2009,09,02,14,24,733.70
2009,09,02,14,25,663.00
2009,09,02,14,26,676.90
2009,09,02,14,27,740.40
2009,09,02,14,28,696.90
2009,09,02,14,29,766.00
2009,09,02,14,30,766.00
2009,09,02,14,31,766.90
2009,09,02,14,32,768.70
2009,09,02,14,33,748.90
2009,09,02,14,34,737.80
2009,09,02,14,35,735.70
2009,09,02,14,36,728.20
2009,09,02,14,37,724.30
2009,09,02,14,38,721.60
2009,09,02,14,39,698.00
2009,09,02,14,40,698.00
2009,09,02,14,41,698.00
2009,09,02,14,42,629.90
2009,09,02,14,43,252.60
2009,09,02,14,44,175.70
2009,09,02,14,45,179.90
2009,09,02,14,46,227.00
2009,09,02,14,47,227.00
2009,09,02,14,48,206.90
2009,09,02,14,49,103.20
2009,09,02,14,50,120.80
2009,09,02,14,51,125.30
2009,09,02,14,52,123.50
2009,09,02,14,53,101.70
2009,09,02,14,54,84.60
2009,09,02,14,55,91.90
2009,09,02,14,56,111.70
2009,09,02,14,57,101.70
2009,09,02,14,58,85.40
2009,09,02,14,59,91.90
2009,09,02,15,00,86.60
2009,09,02,15,01,90.20
2009,09,02,15,02,94.00
2009,09,02,15,03,104.60
2009,09,02,15,04,82.10
2009,09,02,15,05,89.10
2009,09,02,15,06,97.20
2009,09,02,15,07,110.10
2009,09,02,15,08,121.10
2009,09,02,15,09,144.40
2009,09,02,15,10,131.30
2009,09,02,15,11,161.20
2009,09,02,15,12,144.80
2009,09,02,15,13,158.40
2009,09,02,15,14,118.60
2009,09,02,15,15,92.50
2009,09,02,15,16,74.60
2009,09,02,15,17,56.20
2009,09,02,15,18,78.20
2009,09,02,15,19,54.60
2009,09,02,15,20,91.10
2009,09,02,15,21,75.10
2009,09,02,15,22,99.50
2009,09,02,15,23,96.30
2009,09,02,15,24,150.70
2009,09,02,15,25,162.70
2009,09,02,15,26,223.20
2009,09,02,15,27,149.90
2009,09,02,15,28,122.50
2009,09,02,15,29,115.70
2009,09,02,15,30,90.00
2009,09,02,15,31,74.50
2009,09,02,15,32,75.70
2009,09,02,15,33,76.10
2009,09,02,15,34,110.40
2009,09,02,15,35,99.10
2009,09,02,15,36,134.30
2009,09,02,15,37,94.40
2009,09,02,15,38,103.40
2009,09,02,15,39,111.80
2009,09,02,15,40,116.80
2009,09,02,15,41,122.20
2009,09,02,15,42,125.60
2009,09,02,15,43,113.00
2009,09,02,15,44,113.00
2009,09,02,15,45,113.20
2009,09,02,15,46,114.00
2009,09,02,15,47,113.20
2009,09,02,15,48,106.00
2009,09,02,15,49,94.10
2009,09,02,15,50,119.90
2009,09,02,15,51,140.10
2009,09,02,15,52,137.20
2009,09,02,15,53,146.00
2009,09,02,15,54,125.30
2009,09,02,15,55,100.00
2009,09,02,15,56,100.30
2009,09,02,15,57,102.80
2009,09,02,15,58,108.40
2009,09,02,15,59,116.60
2009,09,02,16,00,120.50
2009,09,02,16,01,123.60
2009,09,02,16,02,127.20
2009,09,02,16,03,128.70
2009,09,02,16,04,132.50
2009,09,02,16,05,135.60
2009,09,02,16,06,139.80
2009,09,02,16,07,144.80
2009,09,02,16,08,149.30
2009,09,02,16,09,151.60
2009,09,02,16,10,155.00
2009,09,02,16,11,155.20
2009,09,02,16,12,156.00
2009,09,02,16,13,156.00
2009,09,02,16,14,155.90
2009,09,02,16,15,155.00
2009,09,02,16,16,155.00
2009,09,02,16,17,155.20
2009,09,02,16,18,156.60
2009,09,02,16,19,159.70
2009,09,02,16,20,158.00
2009,09,02,16,21,158.00
2009,09,02,16,22,158.00
2009,09,02,16,23,157.70
2009,09,02,16,24,156.30
2009,09,02,16,25,158.00
2009,09,02,16,26,158.00
2009,09,02,16,27,158.00
2009,09,02,16,28,158.00
2009,09,02,16,29,157.50
2009,09,02,16,30,155.00
2009,09,02,16,31,155.00
2009,09,02,16,32,155.00
2009,09,02,16,33,155.20
2009,09,02,16,34,156.30
2009,09,02,16,35,158.00
2009,09,02,16,36,157.70
2009,09,02,16,37,155.80
2009,09,02,16,38,154.70
2009,09,02,16,39,153.00
2009,09,02,16,40,152.70
2009,09,02,16,41,150.70
2009,09,02,16,42,149.00
2009,09,02,16,43,149.00
2009,09,02,16,44,148.80
2009,09,02,16,45,147.70
2009,09,02,16,46,145.70
2009,09,02,16,47,144.00
2009,09,02,16,48,143.70
2009,09,02,16,49,142.00
2009,09,02,16,50,141.80
2009,09,02,16,51,140.70
2009,09,02,16,52,139.00
2009,09,02,16,53,139.00
2009,09,02,16,54,138.70
2009,09,02,16,55,136.70
2009,09,02,16,56,134.50
2009,09,02,16,57,131.70
2009,09,02,16,58,129.50
2009,09,02,16,59,126.40
2009,09,02,17,00,122.70
2009,09,02,17,01,120.50
2009,09,02,17,02,117.70
2009,09,02,17,03,115.70
2009,09,02,17,04,113.80
2009,09,02,17,05,112.70
2009,09,02,17,06,110.70
2009,09,02,17,07,108.70
2009,09,02,17,08,106.70
2009,09,02,17,09,104.80
2009,09,02,17,10,103.70
2009,09,02,17,11,102.00
2009,09,02,17,12,101.70
2009,09,02,17,13,99.70
2009,09,02,17,14,97.80
2009,09,02,17,15,97.00
2009,09,02,17,16,96.70
2009,09,02,17,17,95.00
2009,09,02,17,18,95.00